Weather History for KMLI - December, 2012

Change the Weather History Date:

Wednesday, December 26, 2012

  Actual Average Record
Temperature  
Mean Temperature 24 °F 24 °F  
Max Temperature 27 °F 32 °F 56 °F (1936)
Min Temperature 20 °F 16 °F -19 °F (1962)
Degree Days  
Heating Degree Days 41 41  
Month to date heating degree days 791 983  
Since 1 July heating degree days 2136 2214  
Cooling Degree Days 0 0  
Month to date cooling degree days 0 0  
Year to date cooling degree days 1208 1004  
Moisture  
Dew Point 17 °F    
Average Humidity 75    
Maximum Humidity 81    
Minimum Humidity 68    
Precipitation  
Precipitation 0.00 in 0.06 in 3.38 in (1942)
Month to date precipitation 2.67 1.90  
Year to date precipitation 27.25 37.68  
Snow  
Snow 0.00 in 0.30 in - ()
Month to date snowfall 5.2 7.6  
Since 1 July snowfall 5.2 8.8  
Snow Depth 3.00 in    
Sea Level Pressure  
Sea Level Pressure 30.17 in    
Wind  
Wind Speed 10 mph (North)    
Max Wind Speed 18 mph    
Max Gust Speed 25 mph    
Visibility 10 miles    
Events      
T = Trace of Precipitation, MM = Missing Value Source: NWS Daily Summary

Daily Weather History Graph

Daily Weather History Graph

Search for Another Location

Airport or City:

Trip Planner

Search our weather history database for the weather conditions in past years. The results will help you decide how hot, cold, wet, or windy it might be!

Date:

Astronomy

Dec. 26, 2012 Rise Set
Actual Time 7:27 AM CST 4:38 PM CST
Civil Twilight 6:55 AM CST 5:10 PM CST
Nautical Twilight 6:20 AM CST 5:45 PM CST
Astronomical Twilight 5:47 AM CST 6:18 PM CST
Moon 3:32 PM CST (12/26) 5:50 AM CST (12/26)
Length of Visible Light 10h 14m
Length of Day
9h 11m
Waxing Gibbous, 97% of the Moon is Illuminated
Dec 26
Waxing Gibbous
Dec 28
Full
Jan 4
Last Quarter
Jan 11
New
Jan 18
First Quarter

Hourly Weather History & Observations

Time (CST) Temp. Windchill Dew Point Humidity Pressure Visibility Wind Dir Wind Speed Gust Speed Precip Events Conditions
12:12 AM 19.4 °F 10.4 °F 12.2 °F 74% 30.22 in 10.0 mi North 6.9 mph - N/A   Overcast
12:52 AM 19.9 °F 10.1 °F 12.9 °F 74% 30.24 in 10.0 mi North 8.1 mph - N/A   Overcast
1:52 AM 19.9 °F 9.3 °F 14.0 °F 78% 30.23 in 10.0 mi North 9.2 mph - N/A   Overcast
2:52 AM 21.0 °F 13.4 °F 14.0 °F 74% 30.21 in 10.0 mi NNE 5.8 mph - N/A   Overcast
3:52 AM 21.0 °F 12.4 °F 15.1 °F 78% 30.19 in 10.0 mi NNE 6.9 mph - N/A   Overcast
4:52 AM 21.0 °F 10.6 °F 15.1 °F 78% 30.16 in 10.0 mi North 9.2 mph - N/A   Overcast
5:52 AM 21.9 °F 11.0 °F 16.0 °F 78% 30.16 in 10.0 mi NNE 10.4 mph - N/A   Overcast
6:52 AM 21.9 °F 11.7 °F 16.0 °F 78% 30.17 in 10.0 mi North 9.2 mph 18.4 mph N/A   Overcast
7:39 AM 21.2 °F 10.1 °F 17.6 °F 86% 30.13 in 10.0 mi North 10.4 mph - N/A   Overcast
7:52 AM 23.0 °F 13.9 °F 17.1 °F 78% 30.16 in 10.0 mi North 8.1 mph - N/A   Overcast
8:52 AM 24.1 °F 14.4 °F 17.1 °F 75% 30.17 in 10.0 mi North 9.2 mph - N/A   Overcast
9:52 AM 25.0 °F 14.8 °F 18.0 °F 75% 30.17 in 10.0 mi North 10.4 mph 17.3 mph N/A   Overcast
10:52 AM 26.1 °F 15.6 °F 19.0 °F 75% 30.16 in 8.0 mi North 11.5 mph - N/A   Overcast
11:52 AM 26.1 °F 15.6 °F 19.0 °F 75% 30.13 in 10.0 mi North 11.5 mph - N/A   Overcast
12:52 PM 25.0 °F 13.6 °F 18.0 °F 75% 30.12 in 10.0 mi NNW 12.7 mph - N/A   Overcast
1:52 PM 26.1 °F 15.6 °F 19.0 °F 75% 30.13 in 10.0 mi NNW 11.5 mph 21.9 mph N/A   Overcast
2:52 PM 26.1 °F 16.2 °F 19.0 °F 75% 30.14 in 10.0 mi NNW 10.4 mph - N/A   Overcast
3:52 PM 27.0 °F 17.3 °F 18.0 °F 69% 30.16 in 10.0 mi North 10.4 mph - N/A   Overcast
4:52 PM 26.6 °F 15.2 °F 17.6 °F 69% 30.15 in 10.0 mi North 13.8 mph 17.3 mph N/A   Overcast
5:52 PM 27.0 °F 15.6 °F 18.0 °F 69% 30.17 in 10.0 mi North 13.8 mph 19.6 mph N/A   Overcast
6:52 PM 27.0 °F 16.7 °F 18.0 °F 69% 30.18 in 10.0 mi North 11.5 mph - N/A   Overcast
7:52 PM 26.1 °F 17.6 °F 18.0 °F 71% 30.19 in 10.0 mi NNW 8.1 mph - N/A   Overcast
8:52 PM 26.1 °F 19.4 °F 18.0 °F 71% 30.19 in 10.0 mi NNW 5.8 mph - N/A   Overcast
9:52 PM 25.0 °F 15.5 °F 17.1 °F 72% 30.19 in 10.0 mi North 9.2 mph - N/A   Overcast
10:52 PM 24.1 °F 17.0 °F 16.0 °F 71% 30.19 in 10.0 mi North 5.8 mph - N/A   Overcast
11:52 PM 23.0 °F 18.4 °F 16.0 °F 74% 30.20 in 10.0 mi NNW 3.5 mph - N/A   Overcast